PROFILE

 METAR AND TAF INFORMATION
ADDS - METARS form results

(1146 UTC 16 October 2019)
http://aviationweather.gov/metar/data/
 
ENAT 161050Z 15002KT CAVOK 01/M03 Q1019 RMK WIND 700FT 16007KT
TAF ENAT 161100Z 1612/1621 18008KT 9999 FEW035 

 AIRPORT MAP

 RUNWAY INFORMATION
Runway 11 Runway length 7165 ft Runway width 131 ft
Runway elevation 8 ft Runway displaced threshold 674 ft Runway heading 121
Runway 29 Runway length 7165 ft Runway width 131 ft
Runway elevation 7 ft Runway displaced threshold 418 ft Runway heading 301

 AIRPORT FREQUENCIES
Type ATIS Name ATIS Frequency 118.175 MHZ
Type TWR Name TWR Frequency 118.1 MHZ

 AIRPORT NEAR NAVIGATION AIDS
Type NDB Name Alta Frequency 358 KHZ
Type VOR-DME Name Alta Frequency 117400 KHZ